Zurück zum Katalog

FENGYUN 1C DEB

AktivSSO
NORAD 29765·DEBRIS·🇨🇳 China

Gestartet May 10, 1999 von Taiyuan Satellite Launch Center

Loading…

Nächste Überflüge (nächste 24 Stunden)

TLE

AktuellSource: Space-Track

Epoche: Sep 14, 2026, 19:06 UTC

1 29765U 99025BF  26257.79590472  .00000340  00000-0  24585-3 0  9993
2 29765  98.8155 272.1333 0058713  43.3567 130.4529 14.02203596  6103

Verfolge FENGYUN 1C DEB in Echtzeit mit AllMySat

Download on the App Store